Location: *
(55.5817°S, 142.4781°W)
Time: 07:05:58
(UTC+00:00)

ATLAS 2AS CENTAUR R/B - Pass Details

Date: 29 April 2025
Orbit: 1038 x 1173 km, 63.7° (Epoch: 23 May)

Event Time Altitude Azimuth Distance (km) Brightness Sun altitude
Exits shadow 13:33:54 34° 219° (SW) 1,812 3.6 -27.9°
Maximum altitude 13:36:37 47° 170° (S) 1,501 3.5 -27.6°
Drops below altitude 10° 13:43:46 10° 97° (E) 3,102 6.1 -26.6°
Sets 13:46:40 0° 91° (E) 4,069 7.0 -26.2°
